Weather History for KFBL - November, 2013

Change the Weather History Date:

Thursday, November 28, 2013

  Actual Average Record
Temperature  
Mean Temperature 22 °F -  
Max Temperature 32 °F 31 °F 62 °F (1998)
Min Temperature 12 °F 13 °F -11 °F (1952)
Degree Days  
Heating Degree Days 43    
Moisture  
Dew Point 9 °F    
Average Humidity 54    
Maximum Humidity 79    
Minimum Humidity 38    
Precipitation  
Precipitation 0.00 in - - ()
Sea Level Pressure  
Sea Level Pressure 30.27 in    
Wind  
Wind Speed 6 mph (NW)    
Max Wind Speed 15 mph    
Max Gust Speed 21 mph    
Visibility 10 miles    
Events      
Averages and records for this station are not official NWS values.
T = Trace of Precipitation, MM = Missing Value Source: NWS Daily Summary

Daily Weather History Graph

Daily Weather History Graph

Search for Another Location

Airport or City:

Trip Planner

Search our weather history database for the weather conditions in past years. The results will help you decide how hot, cold, wet, or windy it might be!

Date:

Astronomy

Nov. 28, 2013 Rise Set
Actual Time 7:25 AM CST 4:36 PM CST
Civil Twilight 6:53 AM CST 5:08 PM CST
Nautical Twilight 6:17 AM CST 5:44 PM CST
Astronomical Twilight 5:42 AM CST 6:19 PM CST
Moon 2:19 AM CST 1:55 PM CST
Length of Visible Light 10h 15m
Length of Day
9h 10m
Waning Crescent, 22% of the Moon is Illuminated
Nov 28
Waning Crescent
Dec 2
New
Dec 9
First Quarter
Dec 17
Full
Dec 25
Last Quarter

Hourly Weather History & Observations

Time (CST) Temp. Windchill Dew Point Humidity Pressure Visibility Wind Dir Wind Speed Gust Speed Precip Events Conditions
12:14 AM 24.8 °F 16.9 °F 8.6 °F 50% 30.05 in 10.0 mi SE 6.9 mph - N/A   Overcast
12:34 AM 24.8 °F 17.9 °F 8.6 °F 50% 30.04 in 10.0 mi SE 5.8 mph - N/A   Overcast
12:54 AM 24.8 °F 17.9 °F 8.6 °F 50% 30.04 in 10.0 mi SSE 5.8 mph - N/A   Overcast
1:14 AM 24.8 °F 19.1 °F 8.6 °F 50% 30.05 in 10.0 mi SSE 4.6 mph - N/A   Overcast
1:34 AM 24.8 °F 20.5 °F 8.6 °F 50% 30.05 in 10.0 mi SSE 3.5 mph - N/A   Overcast
1:54 AM 24.8 °F 20.5 °F 10.4 °F 54% 30.05 in 10.0 mi SSE 3.5 mph - N/A   Overcast
2:14 AM 24.8 °F 20.5 °F 10.4 °F 54% 30.06 in 10.0 mi South 3.5 mph - N/A   Overcast
2:34 AM 24.8 °F 19.1 °F 8.6 °F 50% 30.06 in 10.0 mi South 4.6 mph - N/A   Overcast
2:54 AM 24.8 °F - 10.4 °F 54% 30.06 in 10.0 mi Calm Calm - N/A   Overcast
3:14 AM 24.8 °F - 10.4 °F 54% 30.06 in 10.0 mi Calm Calm - N/A   Overcast
3:34 AM 24.8 °F 20.5 °F 10.4 °F 54% 30.07 in 10.0 mi South 3.5 mph - N/A   Overcast
3:54 AM 24.8 °F - 10.4 °F 54% 30.08 in 10.0 mi Calm Calm - N/A   Overcast
4:14 AM 24.8 °F - 10.4 °F 54% 30.08 in 10.0 mi Calm Calm - N/A   Overcast
4:34 AM 24.8 °F - 10.4 °F 54% 30.09 in 10.0 mi Calm Calm - N/A   Overcast
4:54 AM 24.8 °F - 10.4 °F 54% 30.10 in 10.0 mi Calm Calm - N/A   Overcast
5:14 AM 24.8 °F 20.5 °F 10.4 °F 54% 30.11 in 10.0 mi WNW 3.5 mph - N/A   Overcast
5:33 AM 24.8 °F 20.5 °F 10.4 °F 54% 30.13 in 10.0 mi NW 3.5 mph - N/A   Overcast
5:54 AM 24.8 °F 20.5 °F 10.4 °F 54% 30.14 in 10.0 mi WNW 3.5 mph - N/A   Overcast
6:14 AM 24.8 °F 17.9 °F 10.4 °F 54% 30.15 in 10.0 mi WNW 5.8 mph - N/A   Overcast
6:33 AM 24.8 °F 16.1 °F 10.4 °F 54% 30.16 in 10.0 mi NW 8.1 mph - N/A   Overcast
6:54 AM 24.8 °F 16.1 °F 10.4 °F 54% 30.16 in 10.0 mi NW 8.1 mph - N/A   Overcast
7:14 AM 24.8 °F 16.1 °F 10.4 °F 54% 30.17 in 10.0 mi NW 8.1 mph - N/A   Overcast
7:33 AM 24.8 °F 19.1 °F 10.4 °F 54% 30.18 in 10.0 mi NW 4.6 mph - N/A   Overcast
7:54 AM 24.8 °F 17.9 °F 10.4 °F 54% 30.19 in 10.0 mi NW 5.8 mph - N/A   Overcast
8:14 AM 24.8 °F 16.9 °F 10.4 °F 54% 30.20 in 10.0 mi NW 6.9 mph - N/A   Overcast
8:33 AM 24.8 °F 16.1 °F 10.4 °F 54% 30.21 in 10.0 mi NW 8.1 mph - N/A   Scattered Clouds
8:54 AM 26.6 °F 17.5 °F 10.4 °F 51% 30.22 in 10.0 mi NW 9.2 mph - N/A   Scattered Clouds
9:14 AM 26.6 °F 16.2 °F 10.4 °F 51% 30.23 in 10.0 mi NW 11.5 mph 17.3 mph N/A   Scattered Clouds
9:34 AM 28.4 °F 19.1 °F 10.4 °F 47% 30.24 in 10.0 mi NW 10.4 mph 16.1 mph N/A   Clear
9:54 AM 28.4 °F 17.5 °F 10.4 °F 47% 30.25 in 10.0 mi NW 13.8 mph - N/A   Clear
10:14 AM 28.4 °F 18.0 °F 10.4 °F 47% 30.26 in 10.0 mi NW 12.7 mph - N/A   Clear
10:34 AM 30.2 °F 21.9 °F 10.4 °F 44% 30.27 in 10.0 mi NW 9.2 mph 18.4 mph N/A   Clear
10:54 AM 30.2 °F 20.8 °F 8.6 °F 40% 30.27 in 10.0 mi WNW 11.5 mph 16.1 mph N/A   Clear
11:14 AM 30.2 °F 20.8 °F 10.4 °F 44% 30.27 in 10.0 mi NW 11.5 mph 18.4 mph N/A   Clear
11:34 AM 30.2 °F 20.2 °F 10.4 °F 44% 30.27 in 10.0 mi NW 12.7 mph - N/A   Clear
11:54 AM 30.2 °F 19.3 °F 10.4 °F 44% 30.27 in 10.0 mi NW 15.0 mph 19.6 mph N/A   Clear
12:14 PM 32.0 °F 21.6 °F 8.6 °F 38% 30.28 in 10.0 mi NW 15.0 mph 20.7 mph N/A   Clear
12:34 PM 30.2 °F 19.3 °F 10.4 °F 44% 30.29 in 10.0 mi West 15.0 mph - N/A   Scattered Clouds
12:54 PM 30.2 °F 21.9 °F 10.4 °F 44% 30.29 in 10.0 mi NW 9.2 mph 16.1 mph N/A   Scattered Clouds
1:14 PM 30.2 °F 20.8 °F 8.6 °F 40% 30.29 in 10.0 mi WNW 11.5 mph - N/A   Scattered Clouds
1:34 PM 30.2 °F 20.2 °F 10.4 °F 44% 30.30 in 10.0 mi NW 12.7 mph - N/A   Mostly Cloudy
1:54 PM 30.2 °F 21.9 °F 10.4 °F 44% 30.31 in 10.0 mi West 9.2 mph - N/A   Mostly Cloudy
2:14 PM 30.2 °F 20.8 °F 10.4 °F 44% 30.32 in 10.0 mi NW 11.5 mph 17.3 mph N/A   Overcast
2:34 PM 28.4 °F 18.0 °F 10.4 °F 47% 30.32 in 10.0 mi NW 12.7 mph - N/A   Overcast
2:54 PM 28.4 °F 18.5 °F 10.4 °F 47% 30.33 in 10.0 mi WNW 11.5 mph - N/A   Mostly Cloudy
3:14 PM 28.4 °F 19.1 °F 10.4 °F 47% 30.34 in 10.0 mi NW 10.4 mph 17.3 mph N/A   Mostly Cloudy
3:34 PM 28.4 °F 20.4 °F 10.4 °F 47% 30.35 in 10.0 mi WNW 8.1 mph - N/A   Scattered Clouds
3:54 PM 28.4 °F 19.7 °F 10.4 °F 47% 30.36 in 10.0 mi NNW 9.2 mph - N/A   Mostly Cloudy
4:14 PM 28.4 °F 21.2 °F 10.4 °F 47% 30.37 in 10.0 mi NNW 6.9 mph - N/A   Mostly Cloudy
4:34 PM 26.6 °F 20.0 °F 10.4 °F 51% 30.38 in 10.0 mi NNW 5.8 mph - N/A   Mostly Cloudy
4:54 PM 26.6 °F 19.1 °F 10.4 °F 51% 30.39 in 10.0 mi NW 6.9 mph - N/A   Scattered Clouds
5:14 PM 26.6 °F 19.1 °F 10.4 °F 51% 30.40 in 10.0 mi NNW 6.9 mph - N/A   Mostly Cloudy
5:34 PM 24.8 °F 17.9 °F 10.4 °F 54% 30.41 in 10.0 mi NNW 5.8 mph - N/A   Scattered Clouds
5:54 PM 24.8 °F 16.9 °F 10.4 °F 54% 30.42 in 10.0 mi NNW 6.9 mph - N/A   Clear
6:14 PM 23.0 °F 15.8 °F 10.4 °F 59% 30.43 in 10.0 mi NW 5.8 mph - N/A   Clear
6:34 PM 21.2 °F 16.4 °F 10.4 °F 63% 30.43 in 10.0 mi NW 3.5 mph - N/A   Clear
6:54 PM 21.2 °F 16.4 °F 10.4 °F 63% 30.43 in 10.0 mi NNW 3.5 mph - N/A   Clear
7:14 PM 19.4 °F - 8.6 °F 63% 30.44 in 10.0 mi Calm Calm - N/A   Clear
7:34 PM 19.4 °F - 8.6 °F 63% 30.44 in 10.0 mi Calm Calm - N/A   Clear
7:54 PM 17.6 °F - 8.6 °F 68% 30.44 in 10.0 mi Calm Calm - N/A   Clear
8:14 PM 17.6 °F - 6.8 °F 63% 30.45 in 10.0 mi Calm Calm - N/A   Clear
8:34 PM 17.6 °F - 6.8 °F 63% 30.45 in 10.0 mi Calm Calm - N/A   Clear
8:53 PM 15.8 °F - 6.8 °F 68% 30.45 in 10.0 mi Calm Calm - N/A   Clear
9:14 PM 14.0 °F - 6.8 °F 73% 30.45 in 10.0 mi Calm Calm - N/A   Clear
9:34 PM 15.8 °F - 6.8 °F 68% 30.46 in 10.0 mi Calm Calm - N/A   Clear
9:54 PM 14.0 °F - 6.8 °F 73% 30.46 in 10.0 mi Calm Calm - N/A   Clear
10:14 PM 14.0 °F - 6.8 °F 73% 30.47 in 10.0 mi Calm Calm - N/A   Clear
10:34 PM 14.0 °F - 6.8 °F 73% 30.48 in 10.0 mi Calm Calm - N/A   Clear
10:54 PM 12.2 °F - 5.0 °F 73% 30.48 in 10.0 mi Calm Calm - N/A   Clear
11:14 PM 12.2 °F - 5.0 °F 73% 30.49 in 10.0 mi Calm Calm - N/A   Clear
11:34 PM 12.2 °F - 3.2 °F 67% 30.48 in 10.0 mi Calm Calm - N/A   Clear
11:54 PM 12.2 °F - 6.8 °F 79% 30.49 in 10.0 mi Calm Calm - N/A   Clear